Notices

What's New in latest Release from April 7th, 2021:

- Updated Glossary, including Speed of Maximum Gust, and Total Hourly Precipitation

- Updated national and regional climate services offices contacts and prices information

- Addition of station inventory lists for 1981-2010, 1971-2000, and 1961-1990 Normals.

If you haven't already, please take our survey and provide feedback about our website: https://eccc.sondage-survey.ca/f/LanguageSelection.aspx?s=442ca660-fcf1-47c0-95a9-59707d6fd709

Hourly Data Report for November 21, 2017

VICTORIA UNIVERSITY CS
BRITISH COLUMBIA

48°27'25.200" N
123°18'16.600" W
60.10 m
1018598
71783
WYJ

Download Data

Hourly Data (November 2017)
Hourly Data Report for November 21, 2017
TIME
LST
Temp Definition
°C
Dew Point Definition
°C
Rel Hum Definition
%
Precip. Amount Definition
mm

Wind Dir Definition
10's deg

Wind Spd Definition
km/h
Visibility Definition
km
Stn Press Definition
kPa
Hmdx Definition


Wind Chill Definition


Weather Definition


00:00 3.8 3.5 98 0.0 35 3   101.04     LegendNANA
01:00 4.7 4.3 97 0.0 5 2   101.01     LegendNANA
02:00 5.4 4.2 92 0.0 5 3   100.97     LegendNANA
03:00 5.3 4.2 92 0.0 1 10   100.96     LegendNANA
04:00 5.4 4.3 93 0.0 35 9   100.88     LegendNANA
05:00 6.6 4.4 86 0.0 1 8   100.86     LegendNANA
06:00 6.0 4.7 91 0.7 1 7   100.80     LegendNANA
07:00 5.9 5.1 95 0.9 7 2   100.79     LegendNANA
08:00 5.6 4.5 93 1.9 2 8   100.72     LegendNANA
09:00 5.7 4.7 93 0.9 2 11   100.70     LegendNANA
10:00 5.8 5.0 94 1.6 2 11   100.68     LegendNANA
11:00 5.9 5.2 96 2.3 2 12   100.55     LegendNANA
12:00 6.1 5.5 96 2.9 2 9   100.41     LegendNANA
13:00 6.2 5.8 97 1.9 2 10   100.21     LegendNANA
14:00 6.7 6.3 98 2.6 1 10   100.09     LegendNANA
15:00 6.7 6.3 98 2.0 1 12   100.05     LegendNANA
16:00 6.7 6.3 98 0.0 36 9   100.01     LegendNANA
17:00 6.7 6.3 98 0.0 36 6   100.07     LegendNANA
18:00 6.7 6.4 98 0.0 35 4   100.12     LegendNANA
19:00 7.5 7.2 98 0.0 7 2   100.21     LegendNANA
20:00 8.5 8.2 98 0.0 8 4   100.23     LegendNANA
21:00 10.0 9.7 98 0.0 15 3   100.35     LegendNANA
22:00 10.1 9.8 98 0.2 14 4   100.39     LegendNANA
23:00 9.2 9.0 98 0.3 21 4   100.48     LegendNANA

Notes on Data Quality.

Legend

  • E = Estimated
  • M = Missing
  • NA = Not Available*
  • [empty] = Indicates an unobserved value
Date modified: